Wind_Speed
16 15 15 16 16 15 14 12 12 11 10 8 6 5 5 6 5 6 5 6 9 10 9 10 11 11 10 8 8 6 4 3 4 5 5 6 5 5 4 5 6 7 8 8
18 17 18 18 17 17 15 14 13 13 12 10 8 6 6 6 6 6 6 7 8 10 11 10 11 11 10 8 7 7 6 5 4 5 5 5 5 5 5 5 6 7 8 9
20 20 19 18 17 17 16 16 15 14 14 12 10 8 7 7 7 7 7 7 8 9 10 11 11 10 9 7 7 7 7 7 6 5 6 6 6 6 6 7 8 8 9 10
23 22 21 19 18 18 17 17 17 16 15 14 12 10 8 8 7 7 7 7 7 9 9 10 10 9 9 8 9 9 8 8 6 6 5 6 6 7 8 8 8 9 10 12
24 24 22 20 20 19 19 19 18 17 17 16 14 12 10 9 8 7 7 8 7 9 9 10 11 10 10 10 10 11 10 7 7 7 6 6 6 7 8 7 8 10 11 12
27 26 23 22 22 21 21 21 19 18 18 18 16 14 11 9 8 8 8 8 8 8 10 11 12 10 10 10 10 10 9 7 7 6 6 6 7 8 8 8 9 10 11 12
28 26 25 24 23 23 22 22 20 19 19 18 17 16 12 11 9 9 9 8 8 9 11 12 12 11 10 10 9 9 8 8 7 7 6 6 8 8 8 9 10 11 12 13
29 27 26 25 24 24 24 23 22 21 20 18 18 16 13 12 10 10 10 9 10 11 12 12 12 11 11 11 9 9 8 8 7 7 7 8 9 9 9 10 11 12 13 14
29 28 27 25 25 26 25 24 23 23 22 21 20 17 14 12 11 11 11 11 11 12 13 13 13 12 12 11 10 9 8 8 7 7 8 9 9 9 10 11 12 13 13 14
30 30 29 27 27 27 26 25 25 24 23 22 21 18 14 13 12 12 12 13 12 12 13 13 12 12 12 12 10 10 9 9 8 8 9 9 9 9 10 11 12 13 14 14
31 31 31 30 29 28 27 26 26 25 25 23 21 18 15 14 13 12 12 13 13 12 13 13 12 12 12 12 10 10 10 10 9 9 9 10 10 10 10 11 12 12 13 13
32 32 32 32 30 30 29 27 26 26 25 23 22 18 16 15 13 12 13 13 14 14 14 13 13 13 12 12 10 11 11 11 11 10 10 10 11 12 12 12 12 12 12 13
32 33 32 32 32 31 29 27 26 25 25 24 22 19 16 15 15 14 14 14 14 14 13 14 14 13 12 10 9 10 11 12 12 11 10 11 12 12 13 13 13 13 13 13
31 31 31 30 29 29 28 27 26 25 25 24 22 19 17 16 15 14 14 14 13 13 12 13 12 11 10 8 8 9 10 10 11 11 10 12 13 13 13 13 13 14 14 15
31 30 29 28 29 29 29 28 27 25 24 23 21 20 18 17 16 15 15 14 14 13 12 12 13 11 9 8 8 9 10 10 11 11 11 12 13 13 13 14 15 15 16 16
30 30 29 28 29 30 30 29 28 26 25 23 22 20 18 18 17 16 16 16 14 14 14 14 13 11 9 9 10 10 11 11 11 12 12 13 13 13 14 14 15 16 17 17
30 29 29 28 29 30 30 29 28 27 25 23 22 20 18 18 17 16 16 15 15 15 15 14 12 12 11 11 11 12 12 13 13 13 14 14 14 14 15 15 15 16 17 18
32 31 30 28 29 31 28 28 29 28 26 24 23 21 20 18 18 17 17 16 16 15 16 14 13 12 12 13 14 14 14 15 15 15 16 16 16 16 16 16 16 17 18 18
34 33 32 30 30 30 29 28 28 28 28 27 25 23 21 20 19 19 18 18 18 17 17 16 15 15 15 15 15 15 15 16 16 16 16 17 18 18 17 17 17 17 17 17
37 36 35 34 33 33 29 28 28 27 28 27 26 25 24 22 22 20 19 19 19 19 18 18 17 16 16 16 16 16 16 16 17 17 17 18 18 18 18 18 18 19 19 18
39 39 38 37 36 35 32 31 29 29 28 27 26 26 26 25 24 23 22 21 20 20 20 19 17 16 16 16 16 17 17 17 18 18 18 19 19 19 18 18 18 19 19 19
40 40 41 40 39 37 34 32 30 29 28 28 28 27 26 26 25 24 23 22 21 21 21 20 19 18 18 18 18 18 18 18 19 19 19 19 19 19 19 19 19 19 19 19
43 43 43 42 41 38 36 33 32 30 29 28 28 27 26 26 25 25 24 24 23 22 22 22 22 20 19 18 19 18 19 19 20 20 20 20 20 20 20 20 20 20 20 20
44 43 43 43 42 40 38 35 33 31 30 29 28 28 27 26 26 25 25 24 24 23 23 21 20 19 18 19 19 20 20 20 21 21 21 21 21 21 21 20 20 21 21 21
43 43 43 43 42 40 38 36 35 33 30 28 28 29 29 28 27 26 25 25 25 23 23 21 20 19 20 20 20 20 20 21 21 21 21 21 22 21 21 21 21 21 22 22
41 42 42 42 41 40 38 36 35 33 31 29 28 29 28 28 28 27 26 25 24 23 22 21 20 19 20 20 20 21 21 22 22 21 21 21 21 21 20 20 21 21 21 21
Wind_Direction
230 231 229 229 234 239 242 250 255 260 273 282 293 311 327 323 330 342 353 356 354 352 343 341 345 345 340 333 328 324 314 312 302 293 287 291 292 285 269 255 241 231 226 225
229 229 229 231 234 238 240 246 252 257 265 275 283 293 308 312 314 325 339 343 344 343 341 340 338 338 335 331 323 327 315 301 291 282 276 279 282 281 266 252 241 236 230 229
230 229 231 232 234 237 239 242 245 250 259 268 275 282 295 303 306 315 326 332 331 334 334 332 336 332 325 324 325 319 315 300 288 285 277 275 270 270 267 253 245 241 235 234
229 230 231 231 232 235 236 238 241 247 254 261 270 276 290 302 307 316 322 325 327 330 328 331 333 327 318 314 319 318 312 303 287 285 289 283 274 267 265 257 252 247 243 242
229 230 231 230 232 233 234 238 241 247 253 259 264 273 282 295 307 316 320 328 324 332 329 328 327 319 314 313 317 317 313 298 281 280 280 277 274 267 263 260 257 253 252 249
229 230 230 230 232 232 234 238 243 247 253 256 262 271 279 285 295 305 309 315 319 323 331 328 326 317 317 312 310 315 314 296 290 286 278 276 275 268 260 259 258 256 255 254
229 230 230 230 232 233 235 239 244 247 250 256 261 268 275 280 284 291 296 303 313 320 326 327 329 330 321 317 310 310 306 297 293 288 280 278 278 274 266 261 258 257 256 257
228 228 229 229 232 236 237 240 245 249 253 256 261 267 273 278 280 285 292 296 306 315 320 323 324 326 322 317 309 303 304 299 295 294 287 281 279 277 273 268 262 260 259 260
226 226 227 228 230 233 236 239 243 247 252 255 259 265 271 274 275 278 287 296 302 312 318 317 319 320 318 315 304 298 299 298 296 291 287 283 280 277 275 272 267 265 265 263
224 225 225 226 228 231 234 238 242 246 250 255 260 264 271 271 271 277 286 293 303 312 320 316 314 315 316 310 303 299 298 299 297 290 288 284 281 279 276 273 271 269 267 266
223 224 224 226 228 231 235 238 242 246 250 255 259 262 268 271 273 275 282 290 300 306 313 316 312 308 310 310 302 299 297 294 290 282 281 282 281 280 282 277 276 275 271 270
224 225 224 225 228 230 234 239 243 247 251 255 258 258 262 266 270 274 281 290 297 303 305 309 307 307 304 307 300 297 289 290 287 280 278 280 282 282 285 281 276 275 275 275
225 226 225 224 227 231 234 238 242 246 249 253 256 257 257 260 266 273 282 289 295 301 306 311 308 307 307 304 302 300 296 293 287 282 284 283 285 288 286 285 278 274 274 276
226 227 227 227 230 233 234 237 241 245 249 253 256 256 253 258 266 270 278 287 293 301 304 312 313 311 309 307 309 304 304 300 296 291 294 296 291 289 289 285 283 282 279 279
227 227 226 224 225 229 232 234 238 243 248 252 256 258 257 257 264 269 276 282 288 299 305 311 315 314 308 309 308 306 305 306 306 297 298 302 299 295 294 290 287 286 286 285
228 228 226 224 225 228 230 232 235 240 245 250 255 259 260 260 262 268 275 277 282 291 297 302 306 306 305 305 301 302 305 305 307 305 303 304 303 301 298 293 291 290 288 286
230 230 229 228 226 228 230 232 236 241 246 250 255 259 260 263 265 269 272 273 278 285 292 292 294 295 297 301 300 299 302 304 305 305 303 302 302 301 300 297 294 292 290 288
232 233 233 231 228 231 233 234 239 243 247 251 255 259 262 265 266 267 272 276 278 283 291 289 290 291 292 296 299 299 299 300 300 300 300 299 298 296 297 297 295 294 294 290
232 232 233 233 232 235 235 236 241 245 247 251 255 258 261 263 266 269 275 277 277 282 287 286 286 287 286 289 291 292 294 297 299 300 298 297 296 294 294 294 293 294 294 292
232 233 234 235 236 237 238 240 243 247 249 251 255 257 260 262 265 270 274 276 276 279 280 282 283 284 286 286 286 288 291 294 295 296 297 297 297 296 293 292 293 291 291 289
232 233 235 237 240 241 242 245 249 251 252 253 255 257 259 261 263 266 269 272 272 275 278 277 277 279 284 286 287 288 289 292 293 293 295 295 295 296 294 293 294 293 291 289
233 234 236 239 242 245 246 249 251 254 254 253 254 256 259 260 260 262 265 268 270 275 279 275 275 278 281 284 286 287 288 291 292 292 293 293 293 294 294 293 293 293 292 290
233 234 237 239 242 247 249 250 252 253 254 254 254 255 257 260 259 259 261 263 266 271 276 274 272 273 276 279 283 286 287 290 292 293 293 292 292 292 292 292 291 290 291 291
233 235 237 240 243 246 249 251 253 255 255 254 255 255 256 257 256 257 258 260 264 268 272 273 268 268 273 278 281 285 287 288 290 292 292 291 291 291 291 291 291 290 289 290
234 236 238 240 243 245 247 250 252 253 254 254 254 253 253 255 255 255 257 261 263 265 268 269 271 271 274 277 279 283 285 287 289 291 291 290 291 289 288 287 289 290 289 288
235 236 238 240 241 244 246 248 250 250 250 250 251 251 251 253 254 253 256 258 258 261 266 268 270 270 273 275 277 280 283 285 288 290 290 290 290 286 284 286 289 290 290 289
Height
5886 5889 5890 5891 5893 5894 5896 5898 5899 5900 5900 5901 5901 5901 5902 5902 5902 5902 5902 5901 5900 5899 5897 5896 5894 5892 5891 5890 5889 5888 5887 5887 5887 5887 5887 5887 5886 5886 5886 5886 5886 5887 5889 5890
5884 5886 5887 5889 5890 5892 5894 5896 5897 5898 5898 5899 5900 5900 5901 5901 5901 5901 5901 5900 5899 5897 5896 5895 5893 5892 5890 5889 5888 5888 5887 5886 5886 5886 5886 5886 5885 5885 5885 5885 5885 5886 5887 5888
5880 5883 5884 5886 5888 5890 5892 5894 5895 5896 5897 5898 5899 5900 5900 5900 5900 5900 5899 5899 5898 5896 5895 5894 5892 5891 5889 5888 5887 5887 5886 5885 5884 5884 5884 5884 5884 5884 5884 5884 5884 5885 5886 5887
5875 5878 5881 5884 5886 5888 5890 5891 5893 5894 5895 5896 5897 5898 5899 5899 5899 5899 5898 5897 5896 5895 5894 5892 5890 5889 5888 5887 5885 5884 5884 5883 5883 5883 5883 5882 5882 5883 5883 5883 5883 5884 5884 5885
5872 5874 5877 5880 5883 5885 5887 5888 5890 5892 5893 5894 5895 5896 5898 5897 5897 5897 5896 5896 5894 5893 5892 5890 5889 5887 5887 5885 5884 5882 5881 5881 5881 5881 5881 5881 5880 5881 5881 5881 5882 5882 5882 5883
5867 5870 5874 5877 5879 5882 5883 5885 5887 5889 5890 5892 5893 5894 5895 5895 5895 5895 5895 5894 5893 5892 5890 5889 5887 5885 5884 5883 5882 5881 5880 5879 5879 5879 5878 5878 5879 5879 5879 5879 5879 5880 5880 5881
5862 5866 5870 5873 5875 5878 5880 5883 5885 5886 5887 5889 5890 5891 5894 5893 5894 5894 5893 5892 5891 5890 5889 5887 5885 5883 5882 5880 5879 5878 5878 5877 5877 5876 5876 5876 5877 5877 5877 5877 5877 5878 5878 5878
5858 5862 5866 5869 5872 5874 5876 5879 5882 5884 5885 5886 5887 5888 5891 5891 5891 5891 5891 5890 5889 5888 5887 5885 5883 5882 5880 5879 5877 5877 5876 5875 5874 5874 5874 5874 5874 5874 5874 5874 5874 5875 5875 5876
5853 5857 5861 5864 5867 5870 5872 5875 5878 5880 5881 5883 5884 5886 5888 5889 5889 5889 5888 5888 5887 5886 5884 5883 5881 5880 5879 5877 5876 5875 5875 5873 5872 5872 5872 5872 5872 5871 5871 5871 5871 5872 5872 5872
5847 5852 5856 5859 5862 5865 5868 5871 5873 5876 5877 5879 5881 5883 5885 5886 5886 5887 5886 5885 5884 5883 5882 5881 5879 5878 5877 5876 5875 5874 5873 5872 5870 5870 5870 5870 5869 5869 5868 5868 5868 5868 5868 5869
5841 5846 5850 5854 5857 5861 5864 5867 5869 5871 5874 5876 5877 5882 5882 5883 5883 5883 5883 5882 5882 5881 5879 5878 5877 5876 5875 5874 5873 5872 5871 5870 5869 5868 5868 5867 5867 5866 5865 5865 5865 5865 5865 5865
5836 5840 5845 5849 5853 5855 5859 5862 5865 5868 5870 5872 5874 5880 5878 5879 5880 5880 5880 5880 5879 5878 5877 5876 5875 5874 5872 5871 5870 5869 5869 5868 5867 5866 5865 5865 5864 5864 5863 5862 5862 5862 5862 5862
5830 5835 5839 5844 5849 5852 5854 5858 5861 5863 5865 5867 5870 5875 5875 5876 5876 5877 5877 5876 5876 5875 5874 5873 5872 5870 5869 5868 5867 5866 5866 5865 5864 5863 5863 5862 5861 5861 5860 5859 5859 5859 5858 5858
5825 5830 5836 5841 5844 5847 5850 5854 5856 5859 5861 5863 5866 5869 5871 5872 5873 5873 5873 5873 5873 5872 5871 5870 5869 5867 5866 5865 5865 5864 5864 5862 5862 5861 5860 5859 5858 5857 5857 5856 5855 5855 5854 5854
5820 5824 5829 5835 5838 5842 5845 5849 5852 5854 5857 5859 5862 5864 5866 5868 5869 5869 5870 5870 5870 5869 5869 5868 5866 5865 5864 5863 5863 5862 5861 5861 5860 5859 5858 5857 5855 5854 5853 5852 5852 5851 5850 5849
5815 5819 5824 5829 5833 5836 5840 5843 5847 5850 5852 5855 5857 5860 5862 5863 5864 5865 5866 5866 5867 5866 5866 5865 5864 5863 5862 5862 5861 5860 5860 5859 5857 5856 5855 5854 5853 5851 5850 5849 5848 5847 5846 5845
5810 5815 5819 5823 5828 5831 5834 5839 5842 5845 5847 5850 5853 5856 5857 5859 5860 5861 5862 5862 5863 5863 5862 5862 5861 5860 5860 5859 5858 5858 5857 5856 5855 5854 5852 5851 5849 5848 5847 5845 5844 5843 5842 5840
5805 5809 5814 5818 5822 5825 5832 5834 5837 5840 5843 5845 5848 5850 5852 5854 5856 5857 5858 5858 5858 5859 5858 5858 5857 5857 5857 5856 5855 5854 5853 5852 5851 5850 5848 5847 5846 5844 5843 5841 5840 5839 5837 5835
5799 5803 5807 5812 5815 5819 5825 5828 5832 5835 5837 5840 5843 5845 5847 5849 5850 5852 5853 5854 5854 5854 5854 5854 5853 5853 5853 5852 5851 5850 5850 5848 5847 5846 5844 5843 5842 5840 5839 5837 5836 5834 5832 5831
5792 5797 5801 5805 5809 5813 5820 5823 5826 5830 5832 5835 5837 5839 5841 5843 5845 5848 5848 5849 5849 5849 5849 5849 5849 5849 5848 5848 5847 5846 5845 5844 5843 5842 5840 5839 5837 5836 5834 5833 5831 5829 5828 5827
5785 5789 5793 5798 5802 5807 5812 5816 5820 5824 5827 5829 5831 5833 5835 5838 5840 5842 5843 5844 5844 5844 5844 5844 5844 5844 5844 5843 5842 5842 5841 5840 5839 5837 5836 5834 5833 5831 5829 5828 5826 5825 5823 5822
5777 5782 5786 5791 5795 5802 5805 5809 5813 5816 5819 5822 5825 5827 5829 5831 5833 5835 5836 5837 5838 5838 5839 5839 5839 5838 5838 5838 5838 5837 5836 5835 5834 5833 5831 5829 5828 5826 5824 5823 5822 5821 5819 5817
5769 5775 5779 5784 5790 5794 5798 5802 5805 5808 5812 5814 5817 5820 5822 5824 5826 5828 5829 5831 5832 5833 5833 5833 5833 5833 5833 5833 5833 5832 5831 5830 5828 5827 5826 5824 5822 5821 5819 5818 5817 5816 5814 5813
5761 5766 5771 5776 5781 5786 5790 5794 5798 5801 5804 5807 5810 5813 5815 5817 5819 5821 5823 5824 5826 5826 5827 5827 5827 5827 5827 5827 5827 5826 5825 5824 5823 5822 5820 5818 5817 5815 5814 5812 5811 5810 5809 5807
5753 5758 5762 5768 5773 5778 5782 5786 5790 5793 5797 5800 5803 5805 5807 5810 5812 5814 5816 5818 5819 5820 5821 5821 5821 5821 5822 5821 5821 5820 5819 5818 5817 5816 5814 5813 5811 5810 5808 5807 5806 5804 5803 5801
5745 5750 5755 5760 5765 5770 5774 5778 5782 5785 5789 5792 5795 5797 5800 5802 5805 5807 5809 5811 5812 5813 5814 5815 5815 5815 5815 5815 5815 5815 5814 5812 5811 5810 5809 5807 5806 5804 5803 5801 5800 5798 5797 5795